West Olive, MI

12:56 PM EST on February 24, 2018 (GMT -0500)
Ottawa Station | | Change Station
Active Advisory: Flood Warning

Elev 616 ft 42.93 °N, 86.08 °W | Updated 13 seconds ago

Mostly Cloudy
Mostly Cloudy
39.9 °F
Feels Like 33 °F
N
11.9
Wind Variable Wind from East
Gusts 15.7 mph

Today
High -- | Low -- °F
--% Chance of Precip.
Yesterday
High -- | Low -- °F
Precip. -- in
Pressure 30.13 in
Visibility 10.0 miles
Clouds Overcast 10000 ft
Windchill 33 °F
Dew Point 36 °F
Humidity 85%
Rainfall 0.00 in
Snow Depth Not available.
7:28 AM 6:27 PM
Waxing Gibbous, 66% visible
METAR KBIV 241753Z AUTO 12013G20KT 10SM OVC100 06/01 A3011 RMK AO2 SLP201 T00560006 10056 20000 58031
Pressure 30.13 in
Visibility 10.0 miles
Clouds Overcast 10000 ft
Windchill 33 °F
Dew Point 36 °F
Humidity 85%
Rainfall 0.00 in
Snow Depth Not available.
7:28 AM 6:27 PM
Waxing Gibbous, 66% visible
METAR KBIV 241753Z AUTO 12013G20KT 10SM OVC100 06/01 A3011 RMK AO2 SLP201 T00560006 10056 20000 58031

Get Your Daily Forecast Email!

Thanks for signing up!

Be on the lookout for a verification email in your inbox.

You'll start receiving severe weather alerts in your inbox..

×

10-Day Weather Forecast

Almanac

Astronomy

Feb. 24, 2018 Rise Set
Actual Time
Civil Twilight
Nautical Twilight
Astronomical Twilight
Moon
Length of Visible Light
Length of Day
Tomorrow will be .
, % of the Moon is Illuminated

Today's Extremes

State Highs State Lows

Community

WunderPhotos

Category 6

Welcome to Category 6. This is the collective home for Weather Underground's featured writeups by Dr. Jeff Masters (right), Bob Henson (left), Chris Burt, and other regular contributors.

Nearby

Air Quality

  Air Quality AQ Index Pollutant
Not available.

Snow Depth

Station Depth Elevation

Earthquake Activity

City Distance Mag. Time & Date
Minimum magnitude displayed is 2.5.

Coastal Water Temperatures

Place Temperature

Stations

Nearby Weather Stations

Station Location Temp. Windchill Dew Point Humidity Wind Precip. Elev Updated Type
                   

Watches & Warnings

Flood Warning
Issued: 11:40 AM EST Feb. 24, 2018 – National Weather Service

The Flood Warning continues for
the Grand River at Robinson township.
* Until Saturday March 03.
* At 9:15 am Saturday the stage was 14.8 feet.
* Flood stage is 13.3 feet.
* Minor flooding is occurring and moderate flooding is forecast.
* Forecast, the river will continue rising to near 16.6 feet by
tomorrow evening. The river will fall below flood stage Friday
early afternoon.
* Impact, at 17.0 feet... vanlopik Road is 3 to 4 feet under water.
Moderate flooding of several homes in vanlopik subdivision occurs.
* Flood history, this crest compares to a previous crest of 17.0 feet
on Apr 19 2013.


Lat... Lon 4307 8610 4304 8591 4297 8583 4291 8589
      4297 8595 4300 8610